STARLINK-30268 (57531 NORAD) Tracking and Keplerian Element Data

This shows tracking and keplerian element data for the satellite.

Feedback or suggestion? Click here.




ElementValue
Catalog57531
NameSTARLINK-30268
Epoch Orbit2396
Epoch Day12.9159045
Epoch Year2024
RAAN319.8115
Inclination43.0029
Eccentricity8.31E-05
Argument of Perigee254.5973
Mean Anonmoly105.4778
Mean Motion15.02529246
Decay Rate-1.098E-05
L11 57531U 23115L 24012.91590450 -.00001098 00000+0 -66252-4 0 9999
L22 57531 43.0029 319.8115 0000831 254.5973 105.4778 15.02529246 23964



Live tracking and technical data element details for STARLINK-30268 (NORAD 57531). STARLINK-30268 can be tracked NOW for your location showing map with azimuth and elevation plus other details from your city location.







IsCatalogInMostPopularTable: catalog: 57531, numindb: 26
Update: records affected: 1



GetName: 57531 STARLINK-30268

Hit Count: updated at: Thu, 29 Feb 2024 11:58:04 GMT